Find Starlink 32511

NORAD ID: 61727 Int'l Des: 2024-196 Owner: SPXS Country: US Constellation: starlink operational
LEOCIRCULAR

現在のビュー

3D地球を読み込み中...

About Starlink 32511

Starlink 32511 (NORAD 61727) is a starlink constellation satellite (v2 mini) launched Oct 30, 2024 by SPXS of US. It operates in LEO, CIRCULAR orbit with a mass of 730.00 kg.

次回通過

Passes for default location (London). Set your location on the main map for personalized predictions.

高度履歴

Loading altitude history...

軌道要素

1 61727U 24196W 26235.74860938 .00000707 00000-0 32065-4 0 9992
2 61727 53.1596 43.2699 0000974 84.0637 276.0477 15.34390898102764
Epoch: Aug 23, 2026 • Age: 14 hours

現在のステータス

高度 462.7 km
遠地点 / 近地点 N/A
速度 7.64 km/s
衛星直下点 17.90°N, 40.19°W
打ち上げ日 Oct 30, 2024
運用期間 1.8 years
タイプ internet

技術仕様

分類 Payload
質量 730.00 kg
乾燥質量 700.00 kg
総質量 730.00 kg
長さ 0.30 m
直径 4.10 m
スパン 29.00 m
形状 Box + pan
製造者 SPXS
バスタイプ Starlink V2M
フェーズステータス In Orbit
所有者/国 SPXS/US

Most Searched